Погода в Перелучах

Россия / Новгородская область     58°12′47″N   34°29′27″E
темп.,
°C
ветер,
м/с
пор.,
м/с
влажн.,
%
обл.,
%
осадки,
мм/ч
давл.,
гПа
погр.,
м
25 февраля, чт
чт2500:00−4ююз41096100 1.3 1017433
03:00+1юз41298100 3.7 1013493
06:00+3з51599100 0.5 1010566
09:00+3зсз51499100 0.5 1010601
12:00+2зсз412100100 0.0 1011623
15:00+2зсз31199100 0.0 1012460
18:00+2з21099100 0.0 1011323
21:00+1юз3899100 0.6 1010231
26 февраля, пт
пт2600:00+2зюз311100100 2.1 1008354
03:00+3зюз41299100 3.8 1006395
06:00+3зюз51498100 0.8 1003529
09:00+3зюз51497100 2.1 1000629
12:00+3з71594100 0.6 9991043
15:00+2з8169796 0.9 9991116
18:00+1зсз71596100 0.9 9991056
21:00+1зсз61397100 1.6 1000917
27 февраля, сб
сб2700:00+1зсз61296100 0.2 1000905
03:00+1сз51197100 0.3 1002666
06:000ссз4998100 0.4 1004521
09:00−1с3894100 0.7 1007548
12:00−2с378889 0.0 1009470
15:000ссз378992 0.3 1011574
18:00−1ссз399398 0.1 1013610
21:00−1ссз3109599 0.2 1015579
28 февраля, вс
вс2800:00−2ссз379888 0.4 1016291
03:00−3ссз299793 0.8 1018448
06:00−4ссз399597 0.1 1019473
09:00−5сз389397 0.2 1020413
12:00−2сз358867 0.0 1021431
15:00−2зсз358878 0.0 1022609
18:00−2зсз2690100 0.0 1023324
21:00−4з249593 0.0 1024119
1 марта, пн
пн100:00−5з269732 0.1 1024195
03:00−1з399763 0.2 1024396
06:00−1з31095100 0.1 1023469
09:000з4109399 0.1 1021730
12:00+1з51292100 0.0 1020765
15:00+2з61390100 0.0 1018864
18:00+2з61587100 0.0 1016898
21:00+1зсз5159096 0.0 1014809